This is the latest recevied weather packets stored in our database for station/object WW6Q. If no packets are shown the sender has not sent any weather packets the latest 10 day(s).
| Time | Temp. | Humidity | Pressure | Rain* | Wind** | Luminosity | Snow |
|---|---|---|---|---|---|---|---|
| 1788563706 | 28.33° C | 75% | 1013.3 hPa | 0 mm | - | 30 W/m² | - |
| 1788563401 | 28.89° C | 75% | 1013.4 hPa | 0 mm | - | 35 W/m² | - |
| 1788563099 | 28.89° C | 71% | 1013.1 hPa | 0 mm | - | 37 W/m² | - |
| 1788562795 | 28.89° C | 68% | 1013.2 hPa | 0 mm | - | 39 W/m² | - |
| 1788562493 | 28.89° C | 66% | 1013.2 hPa | 0 mm | - | 41 W/m² | - |
| 1788562192 | 29.44° C | 67% | 1013.3 hPa | 0 mm | - | 43 W/m² | - |
| 1788561889 | 29.44° C | 67% | 1013.3 hPa | 0 mm | - | 44 W/m² | - |
| 1788561588 | 29.44° C | 65% | 1013 hPa | 0 mm | - | 46 W/m² | - |
| 1788561287 | 29.44° C | 66% | 1013 hPa | 0 mm | - | 50 W/m² | - |
| 1788560983 | 29.44° C | 64% | 1012.8 hPa | 0 mm | - | 52 W/m² | - |
| 1788560679 | 29.44° C | 65% | 1013 hPa | 0 mm | - | 56 W/m² | - |
| 1788560378 | 29.44° C | 62% | 1012.7 hPa | 0 mm | - | 58 W/m² | - |
| 1788560073 | 29.44° C | 67% | 1012.9 hPa | 0 mm | - | 54 W/m² | - |
| 1788559769 | 29.44° C | 66% | 1012.7 hPa | 0 mm | - | 52 W/m² | - |
| 1788559468 | 29.44° C | 64% | 1012.6 hPa | 0 mm | - | 53 W/m² | - |
| 1788559163 | 29.44° C | 65% | 1012.7 hPa | 0 mm | - | 53 W/m² | - |
| 1788558858 | 29.44° C | 64% | 1012.7 hPa | 0 mm | - | 52 W/m² | - |
| 1788558554 | 29.44° C | 63% | 1012.5 hPa | 0 mm | - | 52 W/m² | - |
| 1788558250 | 30° C | 67% | 1012.5 hPa | 0 mm | - | 50 W/m² | - |
| 1788557948 | 30° C | 63% | 1012.3 hPa | 0 mm | - | 100 W/m² | - |
| 1788557643 | 30° C | 63% | 1012.4 hPa | 0 mm | - | 75 W/m² | - |
| 1788557339 | 30° C | 63% | 1012.4 hPa | 0 mm | - | 51 W/m² | - |
| 1788557038 | 30° C | 62% | 1012.4 hPa | 0 mm | - | 53 W/m² | - |
| 1788556734 | 29.44° C | 62% | 1012.6 hPa | 0 mm | - | 54 W/m² | - |
| 1788556429 | 30° C | 65% | 1012.6 hPa | 0 mm | - | 59 W/m² | - |
* Rain latest hour (hover to see other rain measurements)
** Current wind speed in m/s (hover to see current wind gust speed)